DW3823 Weather Reports


Display with metric or nautical units.
time (UTC)temp
F
wind
direction
speed
MPH
gust
MPH
rain 1hr
in
rain 24hr
in
rain mn
in
humidity
%
barometer
mb
20260831080004 70 184 0.0 0.0 0.00 0.00 0.00 91 1018.3
20260831075503 70 183 0.0 0.0 0.00 0.00 0.00 91 1018.2
20260831075002 70 183 0.0 0.0 0.00 0.00 0.00 90 1018.2
20260831074501 70 183 0.0 0.0 0.00 0.00 0.00 90 1018.1
20260831074104 70 184 0.0 0.0 0.00 0.00 0.00 90 1018.1
20260831073600 71 184 0.0 1.0 0.00 0.00 0.00 90 1018.3
20260831073100 71 183 0.0 1.0 0.00 0.00 0.00 90 1018.3
20260831072558 71 183 0.0 1.0 0.00 0.00 0.00 90 1018.4
20260831072058 70 184 0.0 0.0 0.00 0.00 0.00 90 1018.4
20260831071557 71 183 0.0 0.0 0.00 0.00 0.00 89 1018.6
20260831071100 71 183 0.0 0.0 0.00 0.00 0.00 89 1018.4
20260831070556 71 183 0.0 0.0 0.00 0.00 0.00 90 1018.5
20260831070058 71 184 0.0 0.0 0.00 0.00 0.00 89 1018.3
20260831065554 71 184 0.0 0.0 0.00 0.00 0.00 88 1018.3
20260831065054 72 360 0.0 0.0 0.00 0.00 0.00 88 1018.3
20260831064606 72 183 0.0 0.0 0.00 0.00 0.00 88 1018.3
20260831064052 72 184 0.0 0.0 0.00 0.00 0.00 88 1018.2
20260831063551 72 184 0.0 1.0 0.00 0.00 0.00 87 1018.3
20260831063051 72 184 0.0 1.0 0.00 0.00 0.00 87 1018.4
20260831062552 72 184 0.0 1.0 0.00 0.00 0.00 87 1018.5
20260831062055 72 183 0.0 1.0 0.00 0.00 0.00 88 1018.5
20260831061551 72 184 0.0 1.0 0.00 0.00 0.00 88 1018.3
20260831061050 72 184 0.0 1.0 0.00 0.00 0.00 88 1018.4
20260831060550 72 360 0.0 1.0 0.00 0.00 0.00 88 1018.5
20260831060050 72 184 0.0 0.0 0.00 0.00 0.00 88 1018.6
20260831055550 72 184 0.0 1.0 0.00 0.00 0.00 87 1018.5
20260831055049 72 184 0.0 1.0 0.00 0.00 0.00 87 1018.5
20260831054602 72 184 0.0 1.0 0.00 0.00 0.00 87 1018.5
20260831054049 72 184 0.0 1.0 0.00 0.00 0.00 87 1018.5
20260831053554 72 183 0.0 1.0 0.00 0.00 0.00 87 1018.8
20260831053049 72 184 0.0 0.0 0.00 0.00 0.00 88 1018.8
20260831052548 72 184 0.0 0.0 0.00 0.00 0.00 87 1019.0
20260831052046 72 184 0.0 1.0 0.00 0.00 0.00 87 1018.8
20260831051547 72 360 0.0 1.0 0.00 0.00 0.00 88 1018.9
20260831051043 72 184 0.0 0.0 0.00 0.00 0.00 88 1018.8
20260831050543 72 360 0.0 0.0 0.00 0.00 0.00 88 1018.6
20260831050041 72 184 0.0 0.0 0.00 0.00 0.00 87 1018.6
20260831045541 73 183 0.0 0.0 0.00 0.00 0.00 88 1018.6
20260831045042 73 360 0.0 0.0 0.00 0.00 0.00 87 1018.6
20260831044549 73 184 0.0 0.0 0.00 0.00 0.00 87 1018.7
20260831044044 73 184 0.0 1.0 0.00 0.00 0.00 87 1018.6
20260831043540 73 184 0.0 2.0 0.00 0.00 0.00 87 1018.6
20260831043039 73 184 0.0 1.0 0.00 0.00 0.00 87 1018.6
20260831042540 73 184 0.0 1.0 0.00 0.00 0.00 87 1018.6
20260831042042 72 184 0.0 0.0 0.00 0.00 0.00 88 1018.7
20260831041557 73 184 0.0 0.0 0.00 0.00 0.00 88 1018.8
20260831041039 73 360 0.0 0.0 0.00 0.00 0.00 87 1018.7
20260831040540 73 184 0.0 0.0 0.00 0.00 0.00 88 1018.7
20260831040042 73 360 0.0 0.0 0.00 0.00 0.00 88 1018.6
20260831035538 73 360 0.0 0.0 0.00 0.00 0.00 88 1018.8
20260831035038 73 360 0.0 1.0 0.00 0.00 0.00 87 1018.7
20260831034538 74 360 0.0 1.0 0.00 0.00 0.00 87 1018.7
20260831034042 73 360 0.0 0.0 0.00 0.00 0.00 88 1018.9
20260831033538 73 360 0.0 0.0 0.00 0.00 0.00 88 1018.8
20260831033038 73 360 0.0 0.0 0.00 0.00 0.00 88 1018.9
20260831032538 73 360 0.0 0.0 0.00 0.00 0.00 88 1018.9
20260831032038 73 360 0.0 0.0 0.00 0.00 0.00 88 1018.7
20260831031540 73 360 0.0 0.0 0.00 0.00 0.00 88 1018.6
20260831031038 73 360 0.0 0.0 0.00 0.00 0.00 88 1018.6
20260831030539 73 360 0.0 0.0 0.00 0.00 0.00 88 1018.6
20260831030046 73 360 0.0 0.0 0.00 0.00 0.00 88 1018.6
20260831025537 74 360 0.0 0.0 0.00 0.00 0.00 87 1018.5
20260831025037 74 360 0.0 0.0 0.00 0.00 0.00 87 1018.5
20260831024542 74 360 0.0 0.0 0.00 0.00 0.00 86 1018.7
20260831024036 74 360 0.0 0.0 0.00 0.00 0.00 86 1018.6
20260831023537 74 360 0.0 0.0 0.00 0.00 0.00 85 1018.6
20260831023036 74 360 0.0 0.0 0.00 0.00 0.00 87 1018.4
20260831022536 74 360 0.0 0.0 0.00 0.00 0.00 87 1018.5
20260831022036 74 360 0.0 0.0 0.00 0.00 0.00 86 1018.6
20260831021536 74 360 0.0 0.0 0.00 0.00 0.00 86 1018.4
20260831021036 74 360 0.0 0.0 0.00 0.00 0.00 86 1018.6
20260831020537 74 360 0.0 0.0 0.00 0.00 0.00 86 1018.4
20260831020035 74 360 0.0 0.0 0.00 0.00 0.00 86 1018.4
20260831015535 74 360 0.0 0.0 0.00 0.00 0.00 86 1018.4
20260831015035 74 360 0.0 0.0 0.00 0.00 0.00 85 1018.1
20260831014536 75 360 0.0 0.0 0.00 0.00 0.00 85 1018.2
20260831014035 75 360 0.0 0.0 0.00 0.00 0.00 85 1017.9
20260831013535 75 360 0.0 0.0 0.00 0.00 0.00 85 1018.0
20260831013039 75 360 0.0 0.0 0.00 0.00 0.00 84 1018.0
20260831012534 75 360 0.0 0.0 0.00 0.00 0.00 83 1017.9
20260831012035 76 360 0.0 1.0 0.00 0.00 0.00 83 1017.9
20260831011537 76 360 0.0 0.0 0.00 0.00 0.00 82 1017.9
20260831011034 75 360 0.0 0.0 0.00 0.00 0.00 83 1018.0
20260831010536 75 360 0.0 0.0 0.00 0.00 0.00 84 1017.7
20260831010034 75 360 0.0 0.0 0.00 0.00 0.00 84 1017.7
20260831005535 75 360 0.0 0.0 0.00 0.00 0.00 83 1017.7
20260831005034 76 360 0.0 0.0 0.00 0.00 0.00 83 1017.7
20260831004535 76 360 0.0 0.0 0.00 0.00 0.00 83 1017.8
20260831004033 76 360 0.0 0.0 0.00 0.00 0.00 82 1017.6
20260831003533 76 360 0.0 0.0 0.00 0.00 0.00 81 1017.6
20260831003033 77 184 0.0 0.0 0.00 0.00 0.00 81 1017.7
20260831002532 77 184 0.0 0.0 0.00 0.00 0.00 79 1017.5
20260831002032 78 184 0.0 0.0 0.00 0.00 0.00 78 1017.4
20260831001531 78 184 0.0 0.0 0.00 0.00 0.00 77 1017.3
20260831001034 78 183 0.0 0.0 0.00 0.00 0.00 77 1017.3
20260831000531 79 184 0.0 0.0 0.00 0.00 0.00 76 1017.1
20260831000031 79 184 0.0 0.0 0.00 0.00 0.00 74 1017.2
20260830235531 80 183 0.0 0.0 0.00 0.00 0.00 74 1017.1
20260830235029 80 184 0.0 0.0 0.00 0.00 0.00 73 1017.1
20260830234540 81 184 0.0 1.0 0.00 0.00 0.00 71 1017.3
20260830234029 81 183 0.0 1.0 0.00 0.00 0.00 72 1017.2
20260830233529 83 184 0.0 1.0 0.00 0.00 0.00 69 1017.4
20260830233029 83 184 0.0 1.0 0.00 0.00 0.00 66 1017.4
20260830232529 85 184 0.0 3.0 0.00 0.00 0.00 64 1017.4
20260830232029 87 183 1.0 5.0 0.00 0.00 0.00 57 1017.2
20260830231535 87 224 3.0 5.0 0.00 0.00 0.00 55 1017.4
20260830231030 87 224 1.0 3.0 0.00 0.00 0.00 56 1017.5
20260830230529 87 173 1.0 4.0 0.00 0.00 0.00 57 1017.4
20260830230039 87 173 2.0 4.0 0.00 0.00 0.00 58 1017.5
20260830225526 88 169 0.0 4.0 0.00 0.00 0.00 62 1017.5
20260830225026 88 185 1.0 6.0 0.00 0.00 0.00 58 1017.5
20260830224526 88 173 2.0 6.0 0.00 0.00 0.00 57 1017.4
20260830224026 88 176 1.0 6.0 0.00 0.00 0.00 58 1017.3
20260830223527 88 219 3.0 6.0 0.00 0.00 0.00 56 1017.5
20260830223026 89 229 2.0 6.0 0.00 0.00 0.00 57 1017.4
20260830222525 89 190 2.0 6.0 0.00 0.00 0.00 56 1017.2
20260830222025 89 171 2.0 5.0 0.00 0.00 0.00 57 1017.2
20260830221525 89 223 2.0 5.0 0.00 0.00 0.00 56 1017.2
20260830221025 89 160 2.0 6.0 0.00 0.00 0.00 56 1017.2
20260830220524 90 241 2.0 5.0 0.00 0.00 0.00 57 1017.2
20260830220026 90 172 2.0 6.0 0.00 0.00 0.00 56 1017.3
20260830215525 90 172 2.0 6.0 0.00 0.00 0.00 56 1017.3
20260830215027 88 189 2.0 5.0 0.00 0.00 0.00 58 1017.3
20260830214524 87 189 0.0 2.0 0.00 0.00 0.00 62 1017.2
20260830214023 87 189 0.0 3.0 0.00 0.00 0.00 64 1017.4
20260830213524 88 189 1.0 5.0 0.00 0.00 0.00 58 1017.3
20260830213023 89 164 3.0 7.0 0.00 0.00 0.00 56 1017.4
20260830212522 90 171 2.0 7.0 0.00 0.00 0.00 55 1017.5
20260830212022 91 188 1.0 6.0 0.00 0.00 0.00 56 1017.4
20260830211523 90 178 1.0 3.0 0.00 0.00 0.00 52 1017.5
20260830211022 91 274 1.0 4.0 0.00 0.00 0.00 50 1017.5
20260830210522 91 286 1.0 6.0 0.00 0.00 0.00 53 1017.5
20260830210022 91 260 2.0 6.0 0.00 0.00 0.00 50 1017.6
20260830205525 91 245 1.0 6.0 0.00 0.00 0.00 51 1017.6
20260830205021 92 261 2.0 4.0 0.00 0.00 0.00 53 1017.4
20260830204520 91 252 1.0 5.0 0.00 0.00 0.00 50 1017.5
20260830204020 91 282 2.0 7.0 0.00 0.00 0.00 49 1017.5
20260830203520 92 229 1.0 7.0 0.00 0.00 0.00 51 1017.5
20260830203023 92 162 2.0 5.0 0.00 0.00 0.00 51 1017.5
20260830202519 92 223 1.0 5.0 0.00 0.00 0.00 50 1017.7
20260830202020 92 269 1.0 4.0 0.00 0.00 0.00 53 1017.7
20260830201533 91 178 2.0 8.0 0.00 0.00 0.00 51 1017.8
20260830201017 91 152 4.0 8.0 0.00 0.00 0.00 53 1017.8
20260830200517 91 214 1.0 4.0 0.00 0.00 0.00 53 1018.2
20260830200015 90 207 1.0 3.0 0.00 0.00 0.00 54 1018.2
20260830195514 88 207 1.0 3.0 0.00 0.00 0.00 59 1018.4
20260830195013 88 209 1.0 3.0 0.00 0.00 0.00 58 1018.6
20260830194514 89 209 1.0 5.0 0.00 0.00 0.00 54 1018.6
20260830194018 91 226 2.0 5.0 0.00 0.00 0.00 55 1018.6
20260830193512 91 166 1.0 9.0 0.00 0.00 0.00 52 1018.8
20260830193014 91 184 3.0 9.0 0.00 0.00 0.00 51 1018.7
20260830192510 91 267 2.0 3.0 0.00 0.00 0.00 56 1018.9
20260830192009 91 108 1.0 6.0 0.00 0.00 0.00 55 1019.0
20260830191515 91 188 2.0 6.0 0.00 0.00 0.00 56 1018.9
20260830191007 90 161 3.0 7.0 0.00 0.00 0.00 55 1018.9
20260830190509 90 217 1.0 6.0 0.00 0.00 0.00 56 1018.8
20260830190007 90 300 2.0 6.0 0.00 0.00 0.00 55 1018.9
20260830185508 89 193 1.0 7.0 0.00 0.00 0.00 58 1019.0
20260830185006 89 187 2.0 7.0 0.00 0.00 0.00 59 1019.1
20260830184507 89 199 2.0 5.0 0.00 0.00 0.00 60 1019.2
20260830184006 87 283 2.0 4.0 0.00 0.00 0.00 62 1019.2
20260830183506 87 263 1.0 5.0 0.00 0.00 0.00 61 1019.2
20260830183005 89 204 2.0 5.0 0.00 0.00 0.00 58 1019.3
20260830182507 90 314 2.0 6.0 0.00 0.00 0.00 57 1019.4
20260830182007 89 244 2.0 6.0 0.00 0.00 0.00 59 1019.6
20260830181505 89 151 2.0 6.0 0.00 0.00 0.00 58 1019.8
20260830181004 89 166 1.0 7.0 0.00 0.00 0.00 58 1019.9
20260830180504 90 146 2.0 7.0 0.00 0.00 0.00 57 1019.8
20260830180002 89 161 2.0 6.0 0.00 0.00 0.00 62 1019.9
20260830175502 87 150 4.0 7.0 0.00 0.00 0.00 61 1019.9
20260830175103 88 173 1.0 5.0 0.00 0.00 0.00 59 1019.9
20260830174616 87 167 1.0 4.0 0.00 0.00 0.00 62 1019.8
20260830174059 86 171 0.0 6.0 0.00 0.00 0.00 67 1019.9
20260830173559 87 211 2.0 6.0 0.00 0.00 0.00 63 1019.8
20260830173501 87 181 2.0 6.0 0.00 0.00 0.00 63 1019.9
20260830173102 87 288 1.0 3.0 0.00 0.00 0.00 63 1019.9
20260830172559 87 325 2.0 7.0 0.00 0.00 0.00 63 1020.0
20260830172058 87 180 3.0 7.0 0.00 0.00 0.00 63 1020.3
20260830171559 88 164 1.0 7.0 0.00 0.00 0.00 61 1020.2
20260830171058 88 127 2.0 7.0 0.00 0.00 0.00 61 1020.3
20260830170556 88 250 3.0 8.0 0.00 0.00 0.00 62 1020.6
20260830170055 88 171 2.0 8.0 0.00 0.00 0.00 65 1020.7
20260830165556 87 227 3.0 9.0 0.00 0.00 0.00 65 1020.8
20260830165057 88 246 3.0 9.0 0.00 0.00 0.00 64 1020.9
20260830164557 85 160 1.0 5.0 0.00 0.00 0.00 69 1021.0
20260830164052 84 169 2.0 5.0 0.00 0.00 0.00 69 1020.9
20260830163552 84 248 2.0 6.0 0.00 0.00 0.00 70 1020.9
20260830163052 85 250 2.0 6.0 0.00 0.00 0.00 67 1020.9
20260830162552 87 177 4.0 6.0 0.00 0.00 0.00 65 1020.7
20260830162050 86 205 2.0 9.0 0.00 0.00 0.00 67 1020.8
20260830161549 85 290 1.0 9.0 0.00 0.00 0.00 70 1020.7
20260830161050 84 247 3.0 7.0 0.00 0.00 0.00 70 1020.7
20260830160548 85 238 4.0 8.0 0.00 0.00 0.00 68 1020.8
20260830160049 86 148 4.0 10.0 0.00 0.00 0.00 69 1020.8
20260830155548 86 159 2.0 8.0 0.00 0.00 0.00 69 1020.9
20260830155046 86 210 3.0 7.0 0.00 0.00 0.00 69 1021.0
20260830154545 86 190 3.0 9.0 0.00 0.00 0.00 68 1020.8
20260830154044 85 134 3.0 9.0 0.00 0.00 0.00 70 1020.9
20260830153542 85 201 2.0 10.0 0.00 0.00 0.00 70 1021.0
20260830153041 85 263 4.0 10.0 0.00 0.00 0.00 71 1021.2
20260830152541 85 169 4.0 10.0 0.00 0.00 0.00 72 1021.0
20260830152040 84 225 2.0 8.0 0.00 0.00 0.00 72 1021.0
20260830151539 84 159 4.0 8.0 0.00 0.00 0.00 72 1021.1
20260830151039 84 245 2.0 7.0 0.00 0.00 0.00 73 1021.0
20260830150536 84 217 3.0 7.0 0.00 0.00 0.00 73 1020.8
20260830150039 83 142 2.0 7.0 0.00 0.00 0.00 72 1020.8
20260830145532 83 150 2.0 8.0 0.00 0.00 0.00 72 1020.7
20260830145033 83 172 3.0 8.0 0.00 0.00 0.00 73 1020.8
20260830144532 82 252 3.0 8.0 0.00 0.00 0.00 74 1020.8
20260830144028 82 155 4.0 11.0 0.00 0.00 0.00 74 1020.7
20260830143531 82 325 4.0 11.0 0.00 0.00 0.00 76 1020.7
20260830143025 81 248 3.0 7.0 0.00 0.00 0.00 76 1020.6
20260830142524 81 173 2.0 8.0 0.00 0.00 0.00 77 1020.7
20260830142023 81 281 3.0 8.0 0.00 0.00 0.00 77 1020.7
20260830141536 80 186 2.0 7.0 0.00 0.00 0.00 77 1020.8
20260830141021 80 74 2.0 7.0 0.00 0.00 0.00 78 1020.7
20260830140522 80 162 2.0 7.0 0.00 0.00 0.00 78 1020.7
20260830140019 80 234 2.0 7.0 0.00 0.00 0.00 78 1020.7
20260830135524 80 144 1.0 7.0 0.00 0.00 0.00 78 1020.7
20260830135017 79 173 3.0 7.0 0.00 0.00 0.00 78 1020.7
20260830134516 79 148 2.0 6.0 0.00 0.00 0.00 79 1020.7
20260830134014 79 225 0.0 6.0 0.00 0.00 0.00 80 1020.7
20260830133513 78 167 2.0 6.0 0.00 0.00 0.00 80 1020.7
20260830133011 78 184 2.0 6.0 0.00 0.00 0.00 81 1020.6
20260830132510 77 192 1.0 6.0 0.00 0.00 0.00 82 1020.7
20260830132009 77 173 1.0 5.0 0.00 0.00 0.00 82 1020.7
20260830131511 77 174 0.0 5.0 0.00 0.00 0.00 83 1020.7
20260830131007 76 185 2.0 5.0 0.00 0.00 0.00 83 1020.7
20260830130507 76 239 3.0 5.0 0.00 0.00 0.00 83 1020.7
20260830130005 76 196 1.0 4.0 0.00 0.00 0.00 84 1020.5
20260830125503 75 186 2.0 5.0 0.00 0.00 0.00 84 1020.6
20260830125002 75 225 1.0 5.0 0.00 0.00 0.00 85 1020.8
20260830124621 75 309 1.0 4.0 0.00 0.00 0.00 86 1020.6
20260830124200 75 310 1.0 4.0 0.00 0.00 0.00 86 1020.6
20260830123557 74 316 0.0 3.0 0.00 0.00 0.00 88 1020.4
20260830123103 73 315 0.0 3.0 0.00 0.00 0.00 88 1020.3
20260830122556 73 26 0.0 2.0 0.00 0.00 0.00 89 1020.3
20260830122055 72 30 0.0 3.0 0.00 0.00 0.00 90 1020.1
20260830121555 72 30 0.0 3.0 0.00 0.00 0.00 91 1020.0
20260830121057 71 30 0.0 0.0 0.00 0.00 0.00 91 1019.9
20260830120552 71 36 0.0 0.0 0.00 0.00 0.00 92 1019.9
20260830120051 70 30 0.0 0.0 0.00 0.00 0.00 92 1019.9
20260830115549 70 30 0.0 0.0 0.00 0.00 0.00 92 1019.8
20260830115048 70 30 0.0 0.0 0.00 0.00 0.00 92 1019.7
20260830114601 70 30 0.0 0.0 0.00 0.00 0.00 92 1019.6
20260830114048 70 30 0.0 0.0 0.00 0.00 0.00 92 1019.6
20260830113551 70 30 0.0 0.0 0.00 0.00 0.00 92 1019.6
20260830113049 70 30 0.0 0.0 0.00 0.00 0.00 92 1019.7
20260830112546 70 30 0.0 0.0 0.00 0.00 0.00 92 1019.7
20260830112048 70 30 0.0 0.0 0.00 0.00 0.00 92 1019.7
20260830111545 70 30 0.0 0.0 0.00 0.00 0.00 92 1019.7
20260830111045 70 30 0.0 0.0 0.00 0.00 0.00 91 1019.7
20260830110545 70 30 0.0 0.0 0.00 0.00 0.00 91 1019.5
20260830110044 70 30 0.0 0.0 0.00 0.00 0.00 90 1019.5
20260830105542 70 30 0.0 0.0 0.00 0.00 0.00 90 1019.3
20260830105042 70 30 0.0 0.0 0.00 0.00 0.00 90 1019.4
20260830104545 70 30 0.0 0.0 0.00 0.00 0.00 90 1019.4
20260830104042 71 30 0.0 0.0 0.00 0.00 0.00 90 1019.5
20260830103542 70 30 0.0 0.0 0.00 0.00 0.00 90 1019.5
20260830103042 70 30 0.0 0.0 0.00 0.00 0.00 90 1019.6
20260830102540 70 30 0.0 0.0 0.00 0.00 0.00 90 1019.5
20260830102040 71 30 0.0 0.0 0.00 0.00 0.00 89 1019.3
20260830101539 71 30 0.0 0.0 0.00 0.00 0.00 89 1019.4
20260830101039 71 33 0.0 0.0 0.00 0.00 0.00 88 1019.3
20260830100541 72 30 0.0 1.0 0.00 0.00 0.00 88 1019.2
20260830100038 72 30 0.0 1.0 0.00 0.00 0.00 88 1019.2
20260830095537 72 30 0.0 0.0 0.00 0.00 0.00 88 1019.2
20260830095037 72 30 0.0 1.0 0.00 0.00 0.00 87 1019.1
20260830094537 72 30 0.0 1.0 0.00 0.00 0.00 88 1019.1
20260830094036 72 30 0.0 1.0 0.00 0.00 0.00 88 1019.0
20260830093535 72 32 0.0 1.0 0.00 0.00 0.00 88 1019.0
20260830093035 71 33 0.0 1.0 0.00 0.00 0.00 88 1019.0
20260830092537 72 30 0.0 2.0 0.00 0.00 0.00 87 1019.1
20260830092036 72 30 0.0 2.0 0.00 0.00 0.00 87 1019.2
20260830091536 72 30 0.0 1.0 0.00 0.00 0.00 87 1019.2
20260830091038 73 30 0.0 1.0 0.00 0.00 0.00 86 1019.1
20260830090534 73 30 0.0 1.0 0.00 0.00 0.00 86 1019.2
20260830090052 73 30 0.0 4.0 0.00 0.00 0.00 86 1019.1
20260830085536 73 30 0.0 4.0 0.00 0.00 0.00 85 1019.2
20260830085034 73 28 0.0 2.0 0.00 0.00 0.00 85 1019.1
20260830084534 73 28 0.0 2.0 0.00 0.00 0.00 85 1019.0
20260830084034 74 32 0.0 1.0 0.00 0.00 0.00 85 1019.0
20260830083534 74 30 0.0 3.0 0.00 0.00 0.00 84 1018.9
20260830083034 74 28 0.0 3.0 0.00 0.00 0.00 84 1019.0
20260830082533 74 27 0.0 2.0 0.00 0.00 0.00 84 1019.1
20260830082033 74 29 0.0 2.0 0.00 0.00 0.00 84 1019.1
20260830081540 74 29 0.0 4.0 0.00 0.00 0.00 84 1019.1
20260830081033 74 30 1.0 4.0 0.00 0.00 0.00 84 1019.1
20260830080532 74 318 1.0 3.0 0.00 0.00 0.00 84 1019.0